Simultaneous Nadir Overpasses (SNOs) Predictions

Prediction of SNOs between AQUA and NPP Satellite Orbit:

Table of predicted SNOs for the next 14.0 days since TLE Epoch: 1/15/2016
Index Date (AQUA) Time (AQUA) Lat,Lon (AQUA) SZA (AQUA ) Date (NPP) Time (NPP) Lat,Lon (NPP) SZA (NPP ) Distance(km) Time Diff (sec)
1 01/17/2016 04:43:27 -74.06, 163.23 59.85 01/17/2016 04:42:44 -74.07, 163.29 59.83 2.07 43
2 01/17/2016 05:32:31 75.15, -26.43 118.98 01/17/2016 05:33:06 75.15, -26.50 118.97 2.44 35
3 01/19/2016 20:59:47 -74.58, -79.66 60.88 01/19/2016 20:59:26 -74.59, -79.59 60.88 2.24 21
4 01/19/2016 21:48:52 75.61, 90.72 118.01 01/19/2016 21:49:49 75.60, 90.65 117.97 2.01 57
5 01/22/2016 12:27:58 70.93,-138.54 122.36 01/22/2016 12:26:44 70.99,-138.73 122.45 9.67 74
6 01/22/2016 13:16:15 -74.67, 36.44 61.50 01/22/2016 13:16:17 -74.67, 36.39 61.49 1.69 2
7 01/22/2016 14:01:28 81.52, -81.06 104.52 01/22/2016 14:02:41 80.95, -82.06 104.25 65.80 73
8 01/25/2016 04:43:36 73.63, -17.74 119.05 01/25/2016 04:42:44 73.62, -17.76 119.11 0.88 52
9 01/25/2016 05:32:28 -75.45, 154.38 62.92 01/25/2016 05:32:52 -75.45, 154.43 62.96 1.46 24
10 01/27/2016 20:59:57 74.05, 99.08 117.99 01/27/2016 20:59:28 74.04, 99.01 118.03 2.49 29




NCC Satellite Simultaneous Nadir Overpasses (SNOs) Prediction Service
